When you browse on this site, cookies collect data to enhance your experience and personalize the content and advertising you see.
Visit our Privacy Policy to learn more. By continuing to use the site, you agree to this use of cookies and data.

Previsão horária em Leontevo

Hoje, 14 Julho, Terça-feira

Tempo Temperatura Precipitação Vento Pressão Humidade
00:00 +17°C° 0.1 mm 3 m/s 740 mmHg 97%
01:00 +17°C° 0 mm 3 m/s 740 mmHg 97%
02:00 +16°C° 0 mm 3 m/s 740 mmHg 97%
03:00 +16°C° 0 mm 2 m/s 741 mmHg 99%
04:00 +16°C° 0 mm 3 m/s 740 mmHg 98%
05:00 +15°C° 0 mm 4 m/s 740 mmHg 97%
06:00 +17°C° 0 mm 4 m/s 740 mmHg 96%
07:00 +16°C° 0.1 mm 5 m/s 740 mmHg 95%
08:00 +16°C° 0.1 mm 5 m/s 740 mmHg 94%
09:00 +16°C° 0.1 mm 6 m/s 740 mmHg 93%
10:00 +17°C° 0 mm 6 m/s 739 mmHg 90%
11:00 +19°C° 0 mm 6 m/s 739 mmHg 87%
12:00 +20°C° 0 mm 6 m/s 739 mmHg 84%
13:00 +20°C° 0 mm 6 m/s 738 mmHg 83%
14:00 +20°C° 0 mm 7 m/s 738 mmHg 83%
15:00 +20°C° 0 mm 7 m/s 737 mmHg 82%
16:00 +20°C° 1.2 mm 7 m/s 736 mmHg 86%
17:00 +18°C° 1.2 mm 8 m/s 735 mmHg 90%
18:00 +18°C° 1.2 mm 8 m/s 734 mmHg 94%
19:00 +18°C° 1.6 mm 8 m/s 734 mmHg 95%
20:00 +20°C° 1.6 mm 7 m/s 733 mmHg 96%
21:00 +20°C° 1.6 mm 7 m/s 733 mmHg 97%
22:00 +20°C° 0.3 mm 6 m/s 732 mmHg 97%
23:00 +19°C° 0.3 mm 5 m/s 732 mmHg 97%

Amanhã, 15 Julho, Quarta-feira

Tempo Temperatura Precipitação Vento Pressão Humidade
00:00 +19°C° 0.3 mm 4 m/s 731 mmHg 97%
01:00 +17°C° 0 mm 5 m/s 732 mmHg 96%
02:00 +16°C° 0 mm 5 m/s 732 mmHg 96%
03:00 +16°C° 0 mm 6 m/s 732 mmHg 95%
04:00 +15°C° 0 mm 6 m/s 732 mmHg 94%
05:00 +15°C° 0 mm 6 m/s 732 mmHg 94%
06:00 +15°C° 0 mm 6 m/s 732 mmHg 93%
07:00 +15°C° 0 mm 6 m/s 732 mmHg 91%
08:00 +15°C° 0 mm 6 m/s 732 mmHg 89%
09:00 +15°C° 0 mm 6 m/s 733 mmHg 87%
10:00 +16°C° 0.2 mm 6 m/s 733 mmHg 86%
11:00 +16°C° 0.2 mm 6 m/s 733 mmHg 86%
12:00 +16°C° 0.2 mm 6 m/s 733 mmHg 85%
13:00 +16°C° 0.3 mm 7 m/s 733 mmHg 85%
14:00 +15°C° 0.3 mm 7 m/s 734 mmHg 84%
15:00 +15°C° 0.3 mm 7 m/s 734 mmHg 84%
16:00 +14°C° 0.3 mm 6 m/s 734 mmHg 87%
17:00 +13°C° 0.3 mm 6 m/s 734 mmHg 89%
18:00 +12°C° 0.3 mm 5 m/s 734 mmHg 92%
19:00 +12°C° 0.5 mm 4 m/s 734 mmHg 93%
20:00 +11°C° 0.5 mm 4 m/s 734 mmHg 95%
21:00 +11°C° 0.5 mm 4 m/s 734 mmHg 96%
22:00 +11°C° 0.4 mm 3 m/s 734 mmHg 96%
23:00 +11°C° 0.4 mm 3 m/s 734 mmHg 97%

Depois de amanhã, 16 Julho, Quinta-feira

Tempo Temperatura Precipitação Vento Pressão Humidade
00:00 +11°C° 0.4 mm 3 m/s 734 mmHg 97%
01:00 +11°C° 0.4 mm 3 m/s 735 mmHg 97%
02:00 +11°C° 0.4 mm 3 m/s 735 mmHg 97%
03:00 +11°C° 0.4 mm 4 m/s 735 mmHg 97%
04:00 +12°C° 0.2 mm 4 m/s 735 mmHg 97%
05:00 +12°C° 0.2 mm 4 m/s 735 mmHg 97%
06:00 +12°C° 0.2 mm 4 m/s 735 mmHg 97%
07:00 +12°C° 0.4 mm 4 m/s 736 mmHg 96%
08:00 +13°C° 0.4 mm 5 m/s 736 mmHg 96%
09:00 +13°C° 0.4 mm 5 m/s 736 mmHg 95%
10:00 +13°C° 0.2 mm 5 m/s 737 mmHg 95%
11:00 +13°C° 0.2 mm 5 m/s 737 mmHg 94%
12:00 +13°C° 0.2 mm 6 m/s 738 mmHg 94%
13:00 +14°C° 0.1 mm 6 m/s 738 mmHg 92%
14:00 +14°C° 0.1 mm 6 m/s 738 mmHg 91%
15:00 +15°C° 0.1 mm 6 m/s 739 mmHg 90%
16:00 +15°C° 0 mm 5 m/s 739 mmHg 90%
17:00 +14°C° 0 mm 5 m/s 739 mmHg 90%
18:00 +14°C° 0 mm 4 m/s 739 mmHg 91%
19:00 +14°C° 0 mm 4 m/s 740 mmHg 92%
20:00 +14°C° 0 mm 3 m/s 740 mmHg 93%
21:00 +14°C° 0 mm 3 m/s 740 mmHg 94%
22:00 +13°C° 0 mm 3 m/s 740 mmHg 95%
23:00 +13°C° 0 mm 3 m/s 740 mmHg 95%

17 Julho, Sexta-feira

Tempo Temperatura Precipitação Vento Pressão Humidade
00:00 +12°C° 0 mm 3 m/s 740 mmHg 96%
01:00 +13°C° 0 mm 3 m/s 740 mmHg 96%
02:00 +13°C° 0 mm 3 m/s 741 mmHg 95%
03:00 +13°C° 0 mm 4 m/s 741 mmHg 95%
04:00 +13°C° 0 mm 3 m/s 741 mmHg 94%
05:00 +13°C° 0 mm 3 m/s 741 mmHg 94%
06:00 +13°C° 0 mm 3 m/s 741 mmHg 93%
07:00 +14°C° 0 mm 3 m/s 741 mmHg 89%
08:00 +15°C° 0 mm 4 m/s 741 mmHg 84%
09:00 +17°C° 0 mm 4 m/s 742 mmHg 80%
10:00 +18°C° 0.1 mm 4 m/s 742 mmHg 78%
11:00 +18°C° 0.1 mm 4 m/s 742 mmHg 77%
12:00 +19°C° 0.1 mm 4 m/s 742 mmHg 75%
13:00 +20°C° 0.1 mm 4 m/s 742 mmHg 71%
14:00 +21°C° 0.1 mm 3 m/s 742 mmHg 68%
15:00 +21°C° 0.1 mm 3 m/s 742 mmHg 65%
16:00 +21°C° 0.2 mm 3 m/s 742 mmHg 68%
17:00 +21°C° 0.2 mm 3 m/s 743 mmHg 72%
18:00 +20°C° 0.2 mm 3 m/s 743 mmHg 75%
19:00 +19°C° 0.1 mm 2 m/s 743 mmHg 80%
20:00 +18°C° 0.1 mm 2 m/s 743 mmHg 84%
21:00 +16°C° 0.1 mm 2 m/s 743 mmHg 89%
22:00 +15°C° 0 mm 2 m/s 744 mmHg 91%
23:00 +15°C° 0 mm 2 m/s 744 mmHg 92%

18 Julho, Sábado

Tempo Temperatura Precipitação Vento Pressão Humidade
00:00 +14°C° 0 mm 2 m/s 744 mmHg 94%
01:00 +13°C° 0 mm 2 m/s 744 mmHg 94%
02:00 +13°C° 0 mm 2 m/s 744 mmHg 94%
03:00 +13°C° 0 mm 2 m/s 744 mmHg 94%
04:00 +13°C° 0 mm 2 m/s 745 mmHg 94%
05:00 +13°C° 0 mm 2 m/s 745 mmHg 94%
06:00 +14°C° 0 mm 2 m/s 745 mmHg 93%
07:00 +15°C° 0 mm 2 m/s 746 mmHg 88%
08:00 +17°C° 0 mm 2 m/s 746 mmHg 82%
09:00 +18°C° 0 mm 3 m/s 746 mmHg 77%
10:00 +19°C° 0.1 mm 3 m/s 746 mmHg 73%
11:00 +20°C° 0.1 mm 3 m/s 746 mmHg 69%
12:00 +21°C° 0.1 mm 3 m/s 746 mmHg 66%
13:00 +21°C° 0.1 mm 3 m/s 746 mmHg 66%
14:00 +21°C° 0.1 mm 3 m/s 746 mmHg 66%
15:00 +22°C° 0.1 mm 3 m/s 746 mmHg 66%
16:00 +21°C° 0.1 mm 3 m/s 746 mmHg 69%
17:00 +21°C° 0.1 mm 3 m/s 746 mmHg 73%
18:00 +21°C° 0.1 mm 3 m/s 746 mmHg 76%
19:00 +19°C° 0.1 mm 3 m/s 746 mmHg 80%
20:00 +18°C° 0.1 mm 2 m/s 746 mmHg 84%
21:00 +16°C° 0.1 mm 2 m/s 747 mmHg 89%
22:00 +15°C° 0 mm 2 m/s 747 mmHg 89%
23:00 +15°C° 0 mm 2 m/s 747 mmHg 90%

19 Julho, Domingo

Tempo Temperatura Precipitação Vento Pressão Humidade
00:00 +14°C° 0 mm 2 m/s 747 mmHg 90%
01:00 +14°C° 0 mm 2 m/s 747 mmHg 91%
02:00 +13°C° 0 mm 2 m/s 747 mmHg 91%
03:00 +12°C° 0 mm 3 m/s 747 mmHg 92%
04:00 +13°C° 0 mm 2 m/s 747 mmHg 90%
05:00 +13°C° 0 mm 2 m/s 747 mmHg 89%
06:00 +14°C° 0 mm 2 m/s 747 mmHg 87%
07:00 +14°C° 0 mm 3 m/s 747 mmHg 82%
08:00 +17°C° 0 mm 3 m/s 747 mmHg 77%
09:00 +19°C° 0 mm 3 m/s 746 mmHg 72%
10:00 +20°C° 0 mm 3 m/s 746 mmHg 66%
11:00 +21°C° 0 mm 4 m/s 746 mmHg 60%
12:00 +22°C° 0 mm 4 m/s 746 mmHg 55%
13:00 +22°C° 0 mm 4 m/s 746 mmHg 54%
14:00 +23°C° 0 mm 4 m/s 746 mmHg 53%
15:00 +23°C° 0 mm 4 m/s 745 mmHg 52%
16:00 +23°C° 0 mm 4 m/s 745 mmHg 57%
17:00 +24°C° 0 mm 3 m/s 745 mmHg 62%
18:00 +23°C° 0 mm 2 m/s 744 mmHg 67%
19:00 +20°C° 0 mm 2 m/s 744 mmHg 70%
20:00 +18°C° 0 mm 2 m/s 744 mmHg 73%
21:00 +16°C° 0 mm 2 m/s 744 mmHg 76%
22:00 +16°C° 0 mm 2 m/s 744 mmHg 78%
23:00 +15°C° 0 mm 2 m/s 744 mmHg 80%
Mostrar mais